Forecast Directory
U.S. Alerts
El Dorado Weather Logo
U.S. Radar Loop Conditions Map

U.S. Color Satellite North America Color Infrared Animated Satellite Loop

Interactive Wx Map Live U.S. Google Map Radar Thumbnail Image

US Precipitation 1 day, 24 hour precipitation map

US Temperatures US Conditions Map

US Climate Data US Conditions Map


NOAA NWS Hourly Roundups by Site
Regional Weather Roundup for Sacramento, CA
Select Site:  

000
ASUS46 KSTO 212315
RWRCA

NORTHERN AND CENTRAL CA REGIONAL WEATHER ROUNDUP
NATIONAL WEATHER SERVICE SACRAMENTO CA
400 PM PDT MON OCT 21 2019

NOTE: FAIR INDICATES FEW OR NO CLOUDS BELOW 12,000 FEET WITH NO
SIGNIFICANT WEATHER AND/OR OBSTRUCTIONS TO VISIBILITY.

CAZ001-003-220000-
NORTHWEST AREA

CITY           SKY/WX    TMP DP  RH WIND       PRES   REMARKS
CRESCENT CITY  SUNNY     58  53  84 N6        30.33R
UKIAH          SUNNY     84  41  21 SW5       30.14F
$$

CAZ006-505>513-220000-
BAY AREA

CITY           SKY/WX    TMP DP  RH WIND       PRES   REMARKS
SANTA ROSA     SUNNY     89  44  20 NW7       30.10F
SAN RAFAEL     N/A       MM  MM  MM MISG
NAPA           SUNNY     91  38  15 N15       30.09S
CONCORD        SUNNY     88  40  18 VRB3      30.09F
OAKLAND CITY   N/A       80  MM  MM MISG
OAKLAND        MOSUNNY   76  51  41 SW7       30.11S
SAN FRAN CITY  N/A       76  MM  34 MISG
SAN FRAN ARPT  SUNNY     82  47  29 W10       30.10F
LIVERMORE      SUNNY     85  41  21 N14       30.10S
HAYWARD        SUNNY     78  50  37 W10       30.10S
REDWOOD CITY   N/A       83  MM  30 MISG
MOFFETT ARPT     N/A    N/A N/A N/A MISG      30.10F
SAN JOSE ARPT  SUNNY     83  50  31 NW13      30.09F
$$
CAZ034-037-514>518-220000-
CENTRAL COAST

CITY           SKY/WX    TMP DP  RH WIND       PRES   REMARKS
WATSONVILLE    SUNNY     83  49  30 VRB6      30.09S
SALINAS        SUNNY     81  50  33 W9        30.07S
MONTEREY       SUNNY     69  52  54 N3        30.10S
SAN LUIS OBISP SUNNY     88  39  17 N9G22     30.02R
SANTA MARIA    SUNNY     91  43  18 NW14G23   29.99R
$$
CAZ015-016-220000-
NORTHERN SACRAMENTO VALLEY

CITY           SKY/WX    TMP DP  RH WIND       PRES   REMARKS
REDDING        SUNNY     83  40  21 N10       30.16F
RED BLUFF      LGT RAIN  85  37  18 N17G23    30.16S
OROVILLE       SUNNY     85  38  18 NW12G22   30.12F
$$
CAZ016>018-220000-
SOUTHERN SACRAMENTO VALLEY

CITY           SKY/WX    TMP DP  RH WIND       PRES   REMARKS
AUBURN         SUNNY     81  39  22 W9G15     30.14S
BEALE AFB      SUNNY     85  42  21 NW22      30.08S
LINCOLN        FAIR      86  39  19 NW13G21   30.08F
MARYSVILLE     SUNNY     86  40  19 NW16G25   30.10S
SAC INTL ARPT  SUNNY     85  40  20 NW20G31   30.08S
MATHER AIRPORT SUNNY     86  37  17 NW17G25   30.07S
DOWNTOWN SAC   N/A       85  MM  MM MISG
SAC EXEC ARPT  SUNNY     86  39  19 N20G26    30.08F
VACAVILLE      SUNNY     87  41  19 N15G24    30.11S
$$
CAZ019>021-220000-
SAN JOAQUIN VALLEY

CITY           SKY/WX    TMP DP  RH WIND       PRES   REMARKS
STOCKTON       SUNNY     86  43  22 NW8       30.08F
MODESTO        SUNNY     81  43  26 NW7       30.09F
MERCED         SUNNY     78  44  29 VRB6      30.11R
LEMOORE        SUNNY     79  41  25 N9        30.10S
FRESNO         SUNNY     77  43  29 CALM      30.11S
HANFORD        SUNNY     81  45  28 N5        30.10S
PORTERVILLE    SUNNY     78  49  35 VRB7      30.11S
BAKERSFIELD    SUNNY     78  46  32 NW5       30.10R
$$
CAZ011-012-071-220000-
NORTHERN MOUNTAINS

CITY           SKY/WX    TMP DP  RH WIND       PRES   REMARKS
YREKA          SUNNY     71  40  32 CALM      30.33S
MOUNT SHASTA   SUNNY     67  34  29 W12G17    30.31R
ALTURAS        PTSUNNY   63  34  33 NW8       30.35R
$$
CAZ011-012-071-220000-
SIERRA NEVADA MTNS

CITY           SKY/WX    TMP DP  RH WIND       PRES   REMARKS
BLUE CANYON    SUNNY     69  23  17 N8        30.34R
TRUCKEE        SUNNY     64  21  19 E8        30.38R
TAHOE VLY ARPT SUNNY     64  32  30 CALM      30.38R
MAMMOTH LAKES  FAIR      66  16  14 NW13G18   30.42R
$$


 

View Past Reports for Sacramento, CA.

Products Courtesy of NOAA-NWS
NWS Information Parsing Script by Ken True at Saratoga Weather - Script by SE Lincoln Weather.



Contact Us | Mobile
Never base any life decisions on weather information from this site or anywhere over the Internet.
Site is dedicated to our Lord & Savior Jesus Christ | Random Jesus Quotes

Copyright © 2019 El Dorado Weather, Inc. | Site Designed By:  El Dorado Weather